Regional Weather Roundup
Issued by NWS Grand Forks, ND

Home | Current Version | Previous Version | Graphics & Text | Print | Product List | Glossary On
Versions: 1 2 3 4 5 6 7 8 9 10 11 12 13 14 15 16 17 18 19 20 21 22 23 24 25 26 27 28 29 30 31 32 33 34 35 36 37 38 39 40 41 42 43 44 45 46 47 48 49 50
185
ASUS43 KFGF 190010
RWRFGF
PRAIRIE TO PINES  WEATHER ROUNDUP
NATIONAL WEATHER SERVICE EASTERN NORTH DAKOTA/GRAND FORKS ND
700 PM CDT WED OCT 18 2017

 **SATELLITE DATA USED TO AUGMENT SKY COVER AT AUTOMATED STATIONS**
 *****  WEATHER ACROSS EASTERN NORTH DAKOTA  *****

CITY           SKY/WX    TMP DP  RH WIND       PRES   REMARKS
GRAND FORKS    FAIR      55  19  24 W15G26    29.86R
6HR MIN TEMP:  55; 6HR MAX TEMP:  63;

GRAND FRKS AFB FAIR      54  17  23 W15G23    29.86R
DEVILS LAKE    FAIR      52  22  30 W21G29    29.88R
6HR MIN TEMP:  52; 6HR MAX TEMP:  57;

FARGO          FAIR      52  21  29 W10       29.92R
WAHPETON ARPT  NOT AVBL
$$

 ***** WEATHER ACROSS CENTRAL AND WESTERN NORTH DAKOTA  *****

CITY           SKY/WX    TMP DP  RH WIND       PRES   REMARKS
BISMARCK       FAIR      52  24  33 W6        29.96S
6HR MIN TEMP:  52; 6HR MAX TEMP:  62;

MINOT          FAIR      51  22  31 W9        29.89S
6HR MIN TEMP:  51; 6HR MAX TEMP:  58;

JAMESTOWN      FAIR      50  22  33 W8        29.94R
6HR MIN TEMP:  50; 6HR MAX TEMP:  59;

MINOT AFB      FAIR      48  22  35 W8        29.88R
GARRISON         N/A     47  22  37 W7        29.92R
WILLISTON      FAIR      53  23  31 W9        29.90S
6HR MIN TEMP:  53; 6HR MAX TEMP:  57;

DICKINSON      FAIR      48  25  40 SW6       29.92S
6HR MIN TEMP:  48; 6HR MAX TEMP:  59;

HETTINGER      FAIR      50  25  37 SW7       29.98S
6HR MIN TEMP:  50; 6HR MAX TEMP:  61;

$$

 *****  OTHER AIRPORT OBSERVATIONS IN OUR AREA  *****

CITY           SKY/WX    TMP DP  RH WIND       PRES   REMARKS
WALHALLA       FAIR     N/A N/A N/A W18G30    29.77R
GRAFTON AIRPOR FAIR      54  18  24 W16G29    29.84R
VALLEY CITY AR FAIR      50  21  32 W12       29.95R
CANDO          FAIR      50  14  23 W15       29.87R
CAVALIER APRT  FAIR      54  12  19 W14G22    29.78R
GWINNER        CLEAR     50  25  37 CALM      29.97R
SHEYENNE NWR     N/A     52  21  29 W6        29.95S
ROLLA          FAIR      50  10  20 W17G28    29.83R
 ***** THE ABOVE OBSERVATIONS ARE NON NWS ARE NOT QUALITY
       CONTROLLED AND MAY MIS-REPORT RAIN FOR SNOW...
$$

  *****  WEATHER ACROSS NORTHERN MINNESOTA  *****

CITY           SKY/WX    TMP DP  RH WIND       PRES   REMARKS
FLAG ISLAND    FAIR      54  14  20 W20G25    29.64R
WARROAD        FAIR      54  18  24 W18G26    29.72R
ROSEAU         FAIR      55   9  15 W15G26    29.73R
HALLOCK        FAIR      54   9  16 W22G28    29.76R
THF RVR FALLS  FAIR      53  15  22 W20G30    29.83R
6HR MIN TEMP:  53; 6HR MAX TEMP:  59;

BAUDETTE       FAIR      53  11  18 W14G26    29.71R
6HR MIN TEMP:  53; 6HR MAX TEMP:  60;

WASKISH        FAIR      54  30  40 W17G24    29.77R
CROOKSTON      FAIR      54  18  24 W23       29.86R
STEPHEN NDAWN    N/A     54  16  22 W14         N/A
GREENBUSH NDAW   N/A     52  18  25 W14         N/A
$$
  *****  WEATHER ACROSS CENTRAL AND WEST MINNESOTA  *****

CITY           SKY/WX    TMP DP  RH WIND       PRES   REMARKS
FOSSTON        FAIR      50  10  20 W17       29.86R
BEMIDJI        FAIR      52  13  21 W17G25    29.83R
6HR MIN TEMP:  52; 6HR MAX TEMP:  60;

PARK RAPIDS    LGT RAIN  53  15  22 W20G30    29.88R
6HR MIN TEMP:  52; 6HR MAX TEMP:  62; 6HR PCP: TRACE;

ELBOW LAKE     FAIR      51  24  35 W9        29.97R
6HR MIN TEMP:  51; 6HR MAX TEMP:  60;

WADENA         LGT RAIN  50  21  32 W7        29.92R
DETROIT LAKES  FAIR      52  18  25 W10       29.92R
MOORHEAD       FAIR      54  19  26 W9        29.93R
FERGUS FALLS   FAIR      52  25  35 W10       29.96R
MORRIS MN      FAIR      52  32  46 W7        29.97R
STAPLES        FAIR      52  16  24 W12       29.91R
$$
  *****  WEATHER ELSEWHERE ACROSS MINNESOTA  *****

CITY           SKY/WX    TMP DP  RH WIND       PRES   REMARKS
DULUTH         FAIR      55  16  21 W15       29.79R
6HR MIN TEMP:  55; 6HR MAX TEMP:  68;

INTRNTL FALLS  FAIR      53  14  21 W13G21    29.70R
6HR MIN TEMP:  53; 6HR MAX TEMP:  62;

ELY            FAIR      54  12  19 W13G18    29.72R
CLOQUET        FAIR      55  12  18 W8        29.81R
WHEATON        FAIR      54  21  28 SW5       29.99R
BRAINERD       FAIR      56  13  18 W13       29.89R
6HR MIN TEMP:  56; 6HR MAX TEMP:  66;

HIBBING        FAIR      53  15  22 W12G17    29.78R
6HR MIN TEMP:  53; 6HR MAX TEMP:  65;

ALEXANDRIA     FAIR      54  22  28 W13       29.96R
6HR MIN TEMP:  54; 6HR MAX TEMP:  64;

SAINT CLOUD    FAIR      55  26  32 W14       29.94R
6HR MIN TEMP:  55; 6HR MAX TEMP:  70;

MINNEAPOLIS    MOCLDY    62  17  17 W10G25    29.93R
6HR MIN TEMP:  62; 6HR MAX TEMP:  73;

$$

  *****  WEATHER ACROSS SOUTH DAKOTA  *****

CITY           SKY/WX    TMP DP  RH WIND       PRES   REMARKS
SIOUX FALLS    MOCLDY    60  32  34 N5        30.03R
6HR MIN TEMP:  57; 6HR MAX TEMP:  74;

BROOKINGS      NOT AVBL
WATERTOWN      FAIR      46  31  55 W6        30.01R
6HR MIN TEMP:  46; 6HR MAX TEMP:  63;

HURON          FAIR      52  32  46 CALM      30.03R HAZE
6HR MIN TEMP:  52; 6HR MAX TEMP:  67;

SISSETON         N/A     52  28  39 W8        29.97R
ABERDEEN       FAIR      49  27  42 W5        30.01R
6HR MIN TEMP:  49; 6HR MAX TEMP:  62;

MITCHELL       FAIR      62  22  21 N3        30.05R
PIERRE         FAIR      57  24  28 S8        30.01F
6HR MIN TEMP:  57; 6HR MAX TEMP:  65;

MOBRIDGE       FAIR      52  26  36 CALM      29.97R
RAPID CITY     FAIR      58  29  33 S14       30.00F
6HR MIN TEMP:  58; 6HR MAX TEMP:  65;

$$

  *****  SOME WEATHER IN NEARBY STATES *****

CITY           SKY/WX    TMP DP  RH WIND       PRES   REMARKS
GLASGOW MT     FAIR      55  24  30 S3        29.85F
6HR MIN TEMP:  53; 6HR MAX TEMP:  60;

GREAT FALLS MT CLOUDY    60  35  39 SW26G37   29.83F
6HR MIN TEMP:  57; 6HR MAX TEMP:  64;

CHEYENNE WY    FAIR      66  13  12 SW10      30.16R
6HR MIN TEMP:  65; 6HR MAX TEMP:  74;

SCOTTSBLUFF NE FAIR      62  28  27 SE8       30.07S
6HR MIN TEMP:  62; 6HR MAX TEMP:  73;

OMAHA NE       FAIR      69  46  43 N13       29.98R
6HR MIN TEMP:  67; 6HR MAX TEMP:  78;

DES MOINES IA  FAIR      67  48  50 SW8       29.98R
6HR MIN TEMP:  67; 6HR MAX TEMP:  75;

DAVENPORT IA   FAIR      61  45  55 S6        30.01S
6HR MIN TEMP:  61; 6HR MAX TEMP:  73;

CHICAGO IL     FAIR      66  41  40 S12       30.03R
6HR MIN TEMP:  66; 6HR MAX TEMP:  71;

EAU CLAIRE WI  FAIR      62  43  49 SW10      29.85R
6HR MIN TEMP:  62; 6HR MAX TEMP:  72;

LA CROSSE WI   FAIR      68  49  50 W8        29.90R
6HR MIN TEMP:  68; 6HR MAX TEMP:  77;

$$

  *****  SOME NATIONAL WEATHER *****

CITY           SKY/WX    TMP DP  RH WIND       PRES   REMARKS
LA GUARDIA NY  FAIR      65  52  62 S8        30.27R
6HR MIN TEMP:  65; 6HR MAX TEMP:  74;

RALEIGH NC     FAIR      54  46  74 CALM      30.33R
6HR MIN TEMP:  54; 6HR MAX TEMP:  68;

ATLANTA GA     FAIR      61  44  53 E6        30.28R
6HR MIN TEMP:  61; 6HR MAX TEMP:  71;

NEW ORLEANS LA FAIR      73  61  65 E5        30.15R
6HR MIN TEMP:  71; 6HR MAX TEMP:  79;

OKLAHOMA CITY  MOCLDY    68  47  46 S10       30.04R
6HR MIN TEMP:  67; 6HR MAX TEMP:  80;

ALBUQUERQUE NM MOCLDY    75  19  12 SW5       30.14F
6HR MIN TEMP:  65; 6HR MAX TEMP:  77;

SALT LAKE CITY FAIR      66  33  29 W6        30.10F
6HR MIN TEMP:  63; 6HR MAX TEMP:  71;

LOS ANGELES CA FAIR



USA.gov is the U.S. government's official web portal to all federal, state and local government web resources and services.